Orbital Elements at Epoch 2459000.5 (2020-May-31.0) TDB
Reference: JPL 16 (heliocentric ecliptic J2000)
Element | Value | Uncertainty (1-sigma) | Units |
e | .1229552215819305 | 4.2419e-08 | |
a | 2.661663285322498 | 2.0922e-08 | au |
q | 2.334397886299181 | 1.1558e-07 | au |
i | 13.40592044360701 | 6.7768e-06 | deg |
node | 31.25030320042622 | 2.308e-05 | deg |
peri | 46.87438537243057 | 4.0619e-05 | deg |
M | 239.5790105354027 | 3.4303e-05 | deg |
tp | 2459531.051795368868 (2021-Nov-12.55179537) | 0.00015415 | TDB |
period | 1586.090989469444 4.34 | 1.8701e-05 5.12e-08 | d yr |
n | .2269731070853772 | 2.6761e-09 | deg/d |
Q | 2.988928684345815 | 2.3494e-08 | au |
|
| | Orbit Determination Parameters
Additional Information
|